Location: Bonnesvalyn
(49.1218°N, 3.3177°E)
Time: 15:10:42
(UTC+00:00)

ATLAS CENTAUR R/B - Pass Details

Date: 09 February 2023
Orbit: 450 x 653 km, 64.7° (Epoch: 19 March)

Event Time Altitude Azimuth Distance (km) Brightness Sun altitude
Rises 18:37:44 0° 298° (WNW) 2,921 6.1 -17.0°
Reaches altitude 10° 18:41:55 10° 335° (NNW) 1,963 4.4 -17.6°
Maximum altitude 18:43:08 11° 351° (N) 1,884 4.1 -17.8°
Drops below altitude 10° 18:44:20 10° 7° (N) 1,929 4.0 -18.0°
Enters shadow 18:45:23 - 20° (NNE) 2,063 4.0 -18.2°
